Longville, MN

1:58 PM CST on December 13, 2017 (GMT -0600)
Longville Municipal

Weather History for KXVG - January, 2014

Change the Weather History Date:

Saturday, January 4, 2014

  Actual Average (KPWC) Record (KPWC)
Temperature  
Mean Temperature 2 °F -  
Max Temperature 19 °F 19 °F 42 °F (2001)
Min Temperature -16 °F 2 °F -20 °F (1999)
Degree Days  
Heating Degree Days 64    
Moisture  
Dew Point -4 °F    
Average Humidity 75    
Maximum Humidity 93    
Minimum Humidity 61    
Precipitation  
Precipitation 0.00 in - - ()
Sea Level Pressure  
Sea Level Pressure 29.88 in    
Wind  
Wind Speed 7 mph (WNW)    
Max Wind Speed 15 mph    
Max Gust Speed 25 mph    
Visibility 8 miles    
Events Snow    
Averages and records for this station are not official NWS values.
T = Trace of Precipitation, MM = Missing Value Source: NWS Daily Summary

Daily Weather History Graph

Daily Weather History Graph

Search for Another Location

Airport or City:

Trip Planner

Search our weather history database for the weather conditions in past years. The results will help you decide how hot, cold, wet, or windy it might be!

Date:

Astronomy

Jan. 04, 2014 Rise Set
Actual Time 8:02 AM CST 4:41 PM CST
Civil Twilight 7:27 AM CST 5:16 PM CST
Nautical Twilight 6:48 AM CST 5:55 PM CST
Astronomical Twilight 6:11 AM CST 6:32 PM CST
Moon 9:52 AM CST (1/4) 9:20 PM CST (1/4)
Length of Visible Light 9h 49m
Length of Day
8h 39m
Waxing Crescent, 15% of the Moon is Illuminated
Jan 4
Waxing Crescent
Jan 7
First Quarter
Jan 15
Full
Jan 23
Last Quarter
Jan 30
New

Hourly Weather History & Observations

Time (CST) Temp. Windchill Dew Point Humidity Pressure Visibility Wind Dir Wind Speed Gust Speed Precip Events Conditions
12:16 AM 19.4 °F - 17.6 °F 93% 29.34 in 2.5 mi Calm Calm - N/A   Overcast
12:36 AM 19.4 °F - 17.6 °F 93% 29.37 in 3.0 mi Calm Calm - N/A Snow Light Snow
12:56 AM 19.4 °F - 17.6 °F 93% 29.37 in 4.0 mi Calm Calm - N/A Snow Light Snow
1:16 AM 19.4 °F 14.3 °F 17.6 °F 93% 29.39 in 7.0 mi WNW 3.5 mph - N/A   Overcast
1:36 AM 19.4 °F 8.6 °F 17.6 °F 93% 29.41 in 5.0 mi WNW 9.2 mph - N/A Snow Light Snow
1:56 AM 19.4 °F 6.6 °F 17.6 °F 93% 29.44 in 7.0 mi NW 12.7 mph 17.3 mph N/A   Overcast
2:16 AM 17.6 °F 6.4 °F 15.8 °F 93% 29.46 in 7.0 mi NW 9.2 mph 18.4 mph N/A   Overcast
2:36 AM 17.6 °F 5.7 °F 12.2 °F 79% 29.50 in 1.8 mi NW 10.4 mph 20.7 mph N/A Snow Light Snow
2:56 AM 14.0 °F 1.2 °F 10.4 °F 86% 29.52 in 3.0 mi NW 10.4 mph 21.9 mph N/A Snow Light Snow
3:16 AM 12.2 °F 0.7 °F 8.6 °F 85% 29.54 in 5.0 mi NW 8.1 mph 20.7 mph N/A Snow Light Snow
3:36 AM 12.2 °F -1.8 °F 6.8 °F 79% 29.56 in 3.0 mi NW 11.5 mph 20.7 mph N/A Snow Light Snow
3:56 AM 10.4 °F -4.8 °F 6.8 °F 85% 29.58 in 4.0 mi NNW 12.7 mph 24.2 mph N/A Snow Light Snow
4:16 AM 10.4 °F -5.4 °F 5.0 °F 79% 29.60 in 7.0 mi NNW 13.8 mph 25.3 mph N/A Snow Light Snow
4:36 AM 10.4 °F -4.1 °F 5.0 °F 79% 29.61 in 7.0 mi NW 11.5 mph 18.4 mph N/A Snow Light Snow
4:56 AM 10.4 °F -2.4 °F 3.2 °F 73% 29.62 in 7.0 mi NNW 9.2 mph 23.0 mph N/A Snow Light Snow
5:16 AM 8.6 °F -7.7 °F 5.0 °F 85% 29.64 in 5.0 mi NW 13.8 mph 23.0 mph N/A Snow Light Snow
5:36 AM 8.6 °F -7.7 °F 5.0 °F 85% 29.68 in 3.0 mi WNW 13.8 mph 23.0 mph N/A Snow Light Snow
5:56 AM 8.6 °F -8.3 °F 3.2 °F 79% 29.72 in 4.0 mi WNW 15.0 mph 20.7 mph N/A Snow Light Snow
6:16 AM 6.8 °F -9.3 °F 3.2 °F 85% 29.72 in 4.0 mi NW 12.7 mph 20.7 mph N/A Snow Light Snow
6:36 AM 6.8 °F -6.9 °F 1.4 °F 79% 29.74 in 3.0 mi NW 9.2 mph 18.4 mph N/A Snow Light Snow
6:56 AM 6.8 °F -7.8 °F 1.4 °F 79% 29.76 in 5.0 mi NW 10.4 mph 19.6 mph N/A Snow Light Snow
7:16 AM 6.8 °F -7.8 °F 1.4 °F 79% 29.77 in 7.0 mi NW 10.4 mph 20.7 mph N/A   Overcast
7:36 AM 6.8 °F -7.8 °F -0.4 °F 72% 29.78 in 10.0 mi WNW 10.4 mph 19.6 mph N/A   Overcast
7:56 AM 6.8 °F -7.8 °F -0.4 °F 72% 29.80 in 10.0 mi NW 10.4 mph 20.7 mph N/A   Overcast
8:16 AM 5.0 °F -6.9 °F -0.4 °F 78% 29.82 in 7.0 mi NW 6.9 mph 17.3 mph N/A   Overcast
8:36 AM 6.8 °F -6.9 °F -0.4 °F 72% 29.84 in 7.0 mi WNW 9.2 mph 18.4 mph N/A   Overcast
8:56 AM 5.0 °F -6.9 °F -0.4 °F 78% 29.85 in 7.0 mi WNW 6.9 mph 18.4 mph N/A   Overcast
9:16 AM 3.2 °F -10.3 °F -2.2 °F 78% 29.86 in 10.0 mi WNW 8.1 mph 18.4 mph N/A   Scattered Clouds
9:36 AM 5.0 °F -10.0 °F -2.2 °F 72% 29.88 in 10.0 mi WNW 10.4 mph 18.4 mph N/A   Clear
9:56 AM 5.0 °F -10.8 °F -2.2 °F 72% 29.89 in 10.0 mi NW 11.5 mph 17.3 mph N/A   Clear
10:16 AM 5.0 °F -8.1 °F -2.2 °F 72% 29.89 in 10.0 mi WNW 8.1 mph 16.1 mph N/A   Clear
10:36 AM 5.0 °F -6.9 °F -2.2 °F 72% 29.91 in 10.0 mi WNW 6.9 mph - N/A   Clear
10:56 AM 5.0 °F -13.0 °F -4.0 °F 66% 29.91 in 10.0 mi WNW 15.0 mph 23.0 mph N/A   Clear
11:16 AM 3.2 °F -13.1 °F -5.8 °F 66% 29.91 in 10.0 mi WNW 11.5 mph 20.7 mph N/A   Clear
11:36 AM 3.2 °F -13.1 °F -5.8 °F 66% 29.92 in 10.0 mi WNW 11.5 mph 19.6 mph N/A   Clear
11:56 AM 3.2 °F -11.3 °F -7.6 °F 61% 29.93 in 10.0 mi WNW 9.2 mph 19.6 mph N/A   Clear
12:16 PM 3.2 °F -12.2 °F -7.6 °F 61% 29.93 in 10.0 mi WNW 10.4 mph - N/A   Clear
12:36 PM 3.2 °F -12.2 °F -7.6 °F 61% 29.93 in 10.0 mi WNW 10.4 mph 20.7 mph N/A   Clear
12:56 PM 3.2 °F -13.9 °F -7.6 °F 61% 29.93 in 10.0 mi WNW 12.7 mph 18.4 mph N/A   Clear
1:16 PM 1.4 °F -16.1 °F -9.4 °F 61% 29.95 in 10.0 mi WNW 12.7 mph 18.4 mph N/A   Clear
1:36 PM 1.4 °F -16.1 °F -9.4 °F 61% 29.94 in 10.0 mi WNW 12.7 mph 19.6 mph N/A   Clear
1:56 PM 1.4 °F -15.3 °F -9.4 °F 61% 29.96 in 10.0 mi WNW 11.5 mph 17.3 mph N/A   Clear
2:16 PM 1.4 °F -16.1 °F -9.4 °F 61% 29.98 in 10.0 mi WNW 12.7 mph 18.4 mph N/A   Clear
2:36 PM 1.4 °F -12.5 °F -9.4 °F 61% 29.99 in 10.0 mi WNW 8.1 mph 18.4 mph N/A   Clear
2:56 PM 1.4 °F -16.1 °F -9.4 °F 61% 30.01 in 10.0 mi WNW 12.7 mph 18.4 mph N/A   Clear
3:16 PM 1.4 °F -9.9 °F -9.4 °F 61% 30.02 in 10.0 mi WNW 5.8 mph - N/A   Clear
3:36 PM 1.4 °F -11.3 °F -9.4 °F 61% 30.02 in 7.0 mi NW 6.9 mph - N/A   Clear
3:56 PM 1.4 °F -13.5 °F -9.4 °F 61% 30.04 in 10.0 mi WNW 9.2 mph - N/A   Clear
4:16 PM -0.4 °F -13.4 °F -9.4 °F 66% 30.05 in 7.0 mi WNW 6.9 mph - N/A   Clear
4:36 PM -2.2 °F -19.9 °F -9.4 °F 71% 30.07 in 10.0 mi West 11.5 mph - N/A   Clear
4:56 PM -2.2 °F -12.5 °F -9.4 °F 71% 30.07 in 10.0 mi WNW 4.6 mph - N/A   Clear
5:16 PM -4.0 °F -16.3 °F -11.2 °F 71% 30.08 in 10.0 mi NW 5.8 mph - N/A   Clear
5:36 PM -5.8 °F -23.4 °F -11.2 °F 77% 30.08 in 10.0 mi West 10.4 mph 16.1 mph N/A   Clear
5:56 PM -5.8 °F -22.4 °F -14.8 °F 65% 30.09 in 10.0 mi WNW 9.2 mph 16.1 mph N/A   Clear
6:16 PM -5.8 °F -21.2 °F -14.8 °F 65% 30.10 in 10.0 mi WNW 8.1 mph - N/A   Clear
6:36 PM -7.6 °F -16.5 °F -14.8 °F 71% 30.11 in 10.0 mi WNW 3.5 mph - N/A   Clear
6:56 PM -7.6 °F -20.6 °F -14.8 °F 71% 30.12 in 10.0 mi WNW 5.8 mph - N/A   Clear
7:16 PM -7.6 °F -23.4 °F -14.8 °F 71% 30.13 in 10.0 mi WNW 8.1 mph - N/A   Clear
7:36 PM -9.4 °F -22.7 °F -16.6 °F 71% 30.14 in 10.0 mi WNW 5.8 mph - N/A   Clear
7:56 PM -9.4 °F -24.3 °F -16.6 °F 71% 30.14 in 10.0 mi WNW 6.9 mph - N/A   Clear
8:16 PM -9.4 °F -22.7 °F -16.6 °F 71% 30.15 in 10.0 mi West 5.8 mph - N/A   Clear
8:36 PM -9.4 °F -20.9 °F -16.6 °F 71% 30.16 in 10.0 mi WNW 4.6 mph - N/A   Scattered Clouds
8:56 PM -11.2 °F -23.0 °F -16.6 °F 77% 30.16 in 4.0 mi WSW 4.6 mph - N/A   Haze
9:16 PM -11.2 °F - -16.6 °F 77% 30.17 in 5.0 mi Calm Calm - N/A   Haze
9:36 PM -11.2 °F -24.8 °F -16.6 °F 77% 30.18 in 10.0 mi West 5.8 mph - N/A   Scattered Clouds
9:56 PM -11.2 °F -20.6 °F -16.6 °F 77% 30.18 in 10.0 mi West 3.5 mph - N/A   Clear
10:16 PM -13.0 °F -25.1 °F -18.4 °F 77% 30.19 in 10.0 mi WNW 4.6 mph - N/A   Clear
10:36 PM -13.0 °F -27.0 °F -16.6 °F 84% 30.19 in 10.0 mi WNW 5.8 mph - N/A   Clear
10:56 PM -14.8 °F -27.2 °F -18.4 °F 84% 30.19 in 10.0 mi West 4.6 mph - N/A   Clear
11:16 PM -14.8 °F -24.8 °F -18.4 °F 84% 30.20 in 10.0 mi West 3.5 mph - N/A   Clear
11:36 PM -16.6 °F -26.8 °F -20.2 °F 84% 30.19 in 10.0 mi WNW 3.5 mph - N/A   Clear
11:56 PM -16.6 °F -29.3 °F -20.2 °F 84% 30.20 in 10.0 mi West 4.6 mph - N/A   Clear